Simultaneous Nadir Overpasses (SNOs) Predictions

Prediction of SNOs between NOAA-19 and TERRA Satellite Orbit:

Table of predicted SNOs for the next 14.0 days since TLE Epoch: 2/2/2014
Index Date (NOAA-19) Time (NOAA-19) Lat,Lon (NOAA-19) SZA (NOAA-19 ) Date (TERRA) Time (TERRA) Lat,Lon (TERRA) SZA (TERRA ) Distance(km) Time Diff (sec)
1 02/02/2014 06:56:40 -70.15,-103.39 93.13 02/02/2014 06:57:08 -70.16,-103.41 93.12 1.38 28
2 02/02/2014 07:47:46 70.02, 64.03 86.74 02/02/2014 07:46:36 70.01, 64.02 86.73 1.31 70
3 02/04/2014 11:40:44 -70.17,-174.41 93.75 02/04/2014 11:41:28 -70.20,-174.45 93.73 3.24 44
4 02/04/2014 12:31:50 70.06, -7.02 86.12 02/04/2014 12:30:56 70.04, -7.03 86.11 1.68 54
5 02/06/2014 16:24:49 -70.25, 114.47 94.34 02/06/2014 16:25:48 -70.23, 114.51 94.37 2.63 59
6 02/06/2014 17:15:54 70.10, -78.08 85.50 02/06/2014 17:15:16 70.07, -78.07 85.47 3.29 38
7 02/08/2014 21:08:55 -70.39, 43.25 94.89 02/08/2014 21:10:07 -70.32, 43.55 94.97 13.76 72
8 02/08/2014 21:59:57 70.11,-149.08 84.82 02/08/2014 21:59:36 70.11,-149.11 84.81 1.12 21
9 02/11/2014 01:53:10 -71.01, -28.78 94.96 02/11/2014 01:54:18 -70.85, -26.75 95.16 75.77 68
10 02/11/2014 02:44:00 70.13, 139.90 84.13 02/11/2014 02:43:56 70.14, 139.85 84.14 2.15 4
11 02/11/2014 03:34:45 -69.50, -51.88 96.53 02/11/2014 03:33:35 -69.55, -53.34 96.46 57.10 70
12 02/13/2014 07:28:03 70.16, 68.85 83.43 02/13/2014 07:28:16 70.18, 68.82 83.44 2.29 13
13 02/13/2014 08:18:59 -70.08,-123.76 96.67 02/13/2014 08:17:46 -70.08,-123.69 96.67 2.54 73
14 02/15/2014 12:12:06 70.21, -2.21 82.73 02/15/2014 12:12:36 70.22, -2.21 82.74 1.10 30
15 02/15/2014 13:03:02 -70.10, 165.22 97.40 02/15/2014 13:02:06 -70.12, 165.28 97.38 2.96 56




NCC Satellite Simultaneous Nadir Overpasses (SNOs) Prediction Service
